GFSMA_850_temp_132.txt.gz
Temp
19 19 19 19 19 20 20 20 20 20 20 21 21 21 20 20 21 21 21 21 21 21 20 20 20 20 20 20 20 20 19 19 19 19 19 18 18 18 18 18 18 17 17
19 19 19 19 20 20 20 21 21 20 20 21 21 21 21 20 20 21 21 21 21 21 21 21 20 20 20 20 20 20 20 19 19 19 19 19 19 19 18 18 18 17 17
19 19 19 19 20 20 20 20 20 20 21 21 21 21 21 21 21 21 20 20 20 20 20 21 20 20 19 18 18 19 19 19 19 19 19 19 19 19 19 19 18 18 17
19 19 20 20 20 20 20 21 21 21 21 21 21 21 21 21 21 21 20 20 20 20 20 21 21 20 19 18 18 18 18 19 18 19 19 19 19 19 19 20 19 19 18
19 19 20 20 20 21 21 21 21 21 21 21 21 21 22 21 21 21 21 21 21 21 22 21 22 21 21 19 18 18 18 18 18 19 19 19 19 19 19 20 20 19 19
19 19 20 20 20 20 21 21 21 21 22 22 22 21 21 21 21 21 21 20 20 21 21 22 23 23 22 20 20 19 18 19 19 19 19 19 19 20 20 21 20 20 19
19 19 20 20 20 20 21 21 21 21 21 22 22 22 22 21 21 22 21 20 20 21 22 23 22 21 22 21 20 20 19 20 20 20 20 20 20 20 20 21 20 20 20
19 19 20 20 21 21 22 22 21 22 22 22 22 22 21 21 21 21 21 21 21 22 23 22 22 22 21 20 20 20 20 20 21 20 20 20 20 20 20 20 20 20 20
19 19 19 20 21 21 21 21 22 22 21 22 22 22 22 22 21 22 22 22 22 22 22 22 21 21 21 21 21 20 20 21 20 20 20 20 20 20 20 20 20 20 19
19 19 19 20 20 20 21 21 21 21 21 21 21 21 21 21 21 22 22 22 22 23 22 21 21 21 21 21 21 20 20 20 20 20 20 19 20 20 20 20 20 20 19
19 19 19 20 20 20 20 20 21 21 21 20 21 21 21 21 21 21 21 22 22 22 22 22 21 21 21 21 20 20 20 20 20 20 19 19 19 20 20 20 20 20 19
19 19 19 19 20 20 20 20 20 20 20 20 20 20 20 21 21 20 20 21 21 22 23 22 21 21 21 21 20 20 20 19 19 19 19 19 19 19 20 20 19 19 19
20 20 19 19 19 20 20 19 20 20 20 20 21 21 21 20 20 20 20 20 21 22 22 22 22 21 21 20 20 20 19 19 19 19 19 19 19 19 20 19 19 19 19
20 20 20 20 20 20 20 20 20 20 20 20 19 19 20 19 19 19 20 20 21 21 21 21 21 21 20 20 20 19 19 19 18 19 19 19 19 19 19 19 19 19 19
19 20 20 19 19 19 19 19 19 19 19 19 19 19 19 19 19 19 20 19 20 20 21 20 20 20 20 20 20 19 19 19 19 18 19 19 19 19 19 18 19 19 19
19 19 19 19 19 19 19 19 19 19 19 19 19 19 19 19 19 19 19 19 19 20 20 20 20 19 19 19 19 19 19 19 19 19 19 19 19 19 18 18 18 18 19
19 19 19 19 19 19 19 18 19 18 18 19 19 19 19 19 19 19 19 19 19 19 20 20 19 19 19 19 19 19 19 19 19 19 19 18 18 18 18 18 18 18 18
19 19 19 19 19 19 19 19 19 18 18 19 19 19 19 19 19 19 19 19 19 19 18 20 19 19 19 19 19 19 19 19 19 19 18 18 17 18 17 17 17 18 18
19 19 19 19 19 19 19 19 19 19 19 19 19 19 19 19 19 18 18 19 19 18 18 19 18 18 18 19 19 18 18 18 17 18 18 18 17 17 17 16 17 17 17
19 19 19 19 19 19 19 19 19 19 19 19 18 18 18 18 18 18 18 18 18 18 18 18 18 18 18 18 18 18 18 18 18 18 18 18 17 17 17 16 17 17 17
19 19 19 19 19 18 18 18 18 18 19 18 18 19 18 18 18 18 18 18 18 18 18 18 18 18 18 18 18 18 17 18 18 18 18 18 17 17 16 16 16 16 16
19 19 18 18 18 18 18 18 18 18 18 18 18 18 18 18 18 18 18 18 18 18 18 18 17 17 18 18 18 18 17 17 17 18 18 18 17 16 16 16 16 15 15
18 19 18 18 18 18 18 18 18 18 17 17 18 17 17 18 18 17 17 17 18 17 17 17 17 17 17 17 17 17 17 17 17 17 17 17 17 16 15 15 15 15 15
18 18 18 17 18 18 18 17 17 17 17 17 17 17 17 16 17 17 17 16 16 16 16 16 16 17 16 16 16 16 16 17 16 16 16 16 16 16 16 14 14 14 14
18 17 17 17 17 18 18 17 16 16 16 17 16 16 15 15 15 16 16 15 15 15 15 15 15 16 15 16 15 16 16 16 16 15 15 15 15 16 15 14 13 14 13
18 18 18 17 17 17 17 16 16 15 15 15 15 14 14 14 14 14 15 15 14 14 15 15 14 14 14 14 14 15 14 15 15 14 15 15 15 15 14 14 14 13 13

GFSMA_850_temp_138.txt.gz
Temp
19 19 19 19 19 19 19 20 20 20 20 20 20 20 20 20 20 20 20 20 20 20 20 20 20 20 20 20 19 19 19 19 19 19 18 17 17 17 17 17 17 17 17
18 19 19 19 19 19 20 20 20 20 20 20 20 21 20 20 20 20 20 20 20 20 21 21 20 20 19 20 20 20 19 19 19 19 19 18 18 17 17 17 18 17 17
18 19 19 19 19 19 20 20 20 20 20 20 20 20 20 20 20 20 20 21 21 21 21 21 21 20 20 20 20 20 20 20 20 20 19 18 18 18 18 18 18 18 17
19 19 19 19 19 19 20 20 20 20 21 20 20 20 20 21 21 21 21 21 21 21 21 21 20 20 19 20 20 20 20 20 21 20 20 19 18 18 18 18 19 19 18
19 19 19 19 19 20 20 20 20 21 21 21 21 20 21 21 21 21 21 21 21 21 21 21 20 20 19 19 19 19 20 20 21 21 20 20 19 19 19 19 19 19 19
18 19 19 19 19 20 20 20 20 21 21 21 21 21 21 21 21 21 21 21 21 21 21 21 21 20 20 19 20 19 20 20 21 20 20 20 19 19 19 20 20 19 19
18 18 18 19 19 19 20 20 20 21 21 21 21 21 21 21 21 21 21 21 21 21 21 21 20 20 20 20 20 20 20 21 20 20 20 19 19 19 19 20 20 20 19
18 18 19 19 19 19 20 20 20 20 21 21 21 21 21 21 22 22 22 21 21 21 21 21 21 20 20 20 20 20 20 20 20 20 20 19 19 19 19 19 19 19 19
18 18 18 19 19 19 20 20 20 20 21 21 21 21 21 21 22 22 22 21 21 21 22 22 21 21 21 21 21 20 20 20 20 19 19 19 18 19 19 19 19 19 19
18 18 18 19 19 19 20 20 20 20 20 21 21 21 21 21 21 21 21 21 21 22 22 22 22 21 21 21 21 20 20 20 19 19 19 19 18 18 19 19 19 19 19
18 19 19 19 19 19 20 20 20 20 20 20 20 21 21 21 20 20 20 21 22 22 21 22 22 21 21 21 20 20 20 20 19 19 19 19 18 18 19 19 19 19 19
18 18 18 19 19 19 19 19 19 19 19 20 20 20 20 20 20 19 20 20 21 21 21 21 21 21 21 21 21 20 20 20 19 19 19 18 18 18 18 19 19 19 19
19 18 18 18 19 19 19 19 19 19 19 19 20 19 20 19 20 19 19 19 19 20 21 21 21 21 21 21 20 20 20 19 19 19 19 18 18 18 19 19 19 19 18
19 18 19 18 18 19 19 19 19 19 19 19 19 19 19 19 19 18 18 19 19 19 20 20 20 20 21 20 20 20 20 19 19 19 19 18 18 18 19 19 19 19 19
19 19 19 19 18 18 18 18 18 19 18 19 19 19 19 19 18 18 18 18 18 18 18 19 19 20 20 20 20 20 19 19 19 19 19 18 18 18 19 19 19 19 19
19 19 19 19 19 19 18 18 18 18 18 18 18 18 18 18 18 18 18 18 18 18 18 19 19 19 19 19 19 19 19 19 19 19 18 18 18 17 18 18 18 18 18
19 19 19 19 19 19 19 19 18 18 18 18 18 18 18 18 18 18 18 18 18 18 18 18 18 18 19 18 18 18 18 19 18 18 18 18 17 17 17 17 17 18 18
19 19 19 19 19 19 19 19 19 18 18 18 18 18 18 18 18 18 18 18 18 18 18 18 18 18 18 18 18 18 18 18 18 18 17 17 17 17 17 16 17 17 17
19 19 19 19 19 19 19 19 19 18 18 19 18 18 18 18 18 18 18 18 18 18 17 17 18 18 18 18 18 18 18 18 17 17 17 17 16 16 16 16 16 16 17
18 19 19 19 19 19 18 18 18 18 19 18 18 18 18 18 18 18 18 18 18 18 17 17 17 17 17 17 17 17 17 17 17 17 17 17 16 16 16 16 16 16 16
18 18 18 19 19 19 18 18 19 19 19 18 18 18 17 18 18 18 18 18 18 18 17 17 17 17 17 16 16 16 16 16 17 17 17 17 16 16 15 15 15 15 15
19 18 18 18 18 18 18 18 18 18 18 18 18 18 18 18 18 18 17 17 17 17 17 17 17 17 17 16 16 16 16 16 16 16 16 16 16 16 15 15 14 14 14
18 18 18 18 18 18 18 18 18 18 18 18 18 17 17 17 17 17 17 17 17 17 16 16 16 16 15 15 15 15 15 15 15 15 15 16 16 15 15 14 14 13 13
18 18 18 18 18 18 18 18 18 18 17 17 17 17 17 17 16 16 16 16 16 15 15 15 15 15 14 14 14 14 14 14 14 14 14 13 14 14 13 13 13 13 12
18 18 18 18 18 18 18 18 18 17 17 17 17 16 16 16 15 15 15 15 15 14 14 14 14 14 13 13 13 13 14 14 13 12 12 13 12 12 12 13 14 13 13
18 18 18 17 17 17 17 17 17 17 17 16 16 15 15 14 14 14 14 14 13 13 13 14 14 14 14 14 13 13 13 13 13 13 12 13 13 12 12 13 13 13 13

GFSMA_850_temp_141.txt.gz
Temp
18 18 18 18 19 19 19 19 19 19 20 20 20 20 20 20 20 20 20 21 20 20 20 20 19 19 19 19 18 19 19 18 18 18 18 18 18 18 18 18 19 18 18
18 18 18 19 19 19 20 20 20 20 20 20 20 21 21 20 21 21 21 21 20 20 20 20 19 19 19 19 18 18 19 18 18 18 18 18 18 18 18 18 19 18 18
18 19 19 19 19 20 20 20 20 20 20 20 20 20 21 20 20 20 20 20 20 20 20 19 19 19 19 19 19 19 19 18 18 18 19 19 19 19 18 18 19 18 18
19 19 19 19 19 20 20 20 20 20 21 20 20 20 20 21 21 21 21 21 20 20 20 20 20 19 19 19 19 19 18 19 19 19 19 19 19 19 19 19 19 19 19
19 19 19 19 19 19 20 20 20 20 21 21 21 21 20 20 21 21 21 21 21 20 20 20 20 20 19 19 19 18 18 19 19 19 20 20 19 19 19 20 20 19 19
19 19 19 19 19 20 20 20 20 20 21 21 21 21 21 21 21 21 21 21 21 20 21 20 20 20 20 19 19 19 19 20 20 20 20 20 19 19 19 20 20 20 19
19 19 19 19 19 19 20 20 20 20 21 21 21 21 22 22 22 22 22 21 21 21 21 21 20 20 20 20 20 20 20 20 20 20 20 20 19 19 19 19 19 19 19
18 19 19 19 19 19 19 20 20 20 20 21 21 21 21 21 22 22 22 22 21 21 21 21 21 21 20 20 20 20 20 20 20 20 19 19 19 19 19 19 19 19 19
19 18 19 19 19 19 19 20 20 20 20 21 21 21 21 22 22 22 22 22 21 21 21 22 21 21 21 20 20 20 20 20 20 19 19 19 19 19 19 19 19 19 19
18 18 19 19 19 19 19 20 20 20 20 20 21 21 21 21 20 22 21 21 21 21 21 21 22 21 21 21 20 20 20 20 20 19 19 19 19 19 19 19 19 19 19
18 18 18 19 19 19 19 19 19 20 20 20 20 20 20 20 20 20 21 21 21 21 21 21 21 21 21 21 20 20 20 20 19 19 19 19 19 19 19 19 19 19 18
18 18 18 19 19 19 19 19 19 19 19 19 19 19 19 19 19 19 19 20 19 20 21 21 21 21 21 21 20 20 20 20 19 19 19 19 19 18 19 19 19 19 18
19 19 19 19 19 19 19 19 19 18 19 19 19 19 19 19 19 19 18 19 19 19 19 20 20 20 20 21 20 20 20 20 19 19 19 19 18 18 18 18 19 18 18
19 19 19 19 19 19 19 19 19 18 19 19 19 19 19 19 19 19 18 18 19 20 19 19 20 20 20 20 20 20 20 19 19 19 18 18 18 18 18 18 18 19 18
19 19 19 19 19 19 19 18 19 18 19 19 19 18 18 18 18 18 18 18 18 19 20 19 19 19 19 19 19 19 19 19 19 19 19 18 18 18 18 18 18 18 18
19 19 19 19 19 19 19 19 19 19 18 18 18 18 18 18 18 18 18 18 18 17 18 19 18 18 18 18 19 19 19 19 19 19 19 19 18 18 18 18 18 18 18
19 19 19 19 19 19 19 19 19 19 18 18 18 18 18 18 18 17 18 18 18 18 17 18 17 18 18 18 18 18 18 18 18 18 18 18 18 17 17 17 17 18 17
19 19 19 19 19 19 19 18 18 19 19 19 19 18 18 18 18 18 18 18 18 18 17 17 17 18 18 18 18 18 18 18 18 18 18 17 17 17 16 17 17 17 17
19 19 19 19 19 18 18 18 18 18 19 18 18 18 18 18 18 18 18 18 18 18 17 16 17 17 18 18 18 18 18 17 17 17 17 17 16 16 16 16 16 16 16
19 19 19 19 19 18 18 18 18 19 18 18 18 18 18 18 18 18 18 18 18 18 17 17 16 17 16 16 17 17 16 17 17 17 17 17 16 16 15 15 15 15 16
20 19 19 19 18 18 18 18 18 18 18 18 18 18 18 18 18 18 18 18 18 17 16 16 17 17 16 16 16 16 16 15 16 16 16 16 16 15 15 15 15 15 15
19 20 19 19 19 19 19 18 18 18 18 18 18 18 18 18 18 18 18 17 17 17 17 16 16 16 16 16 15 15 15 15 15 16 15 15 15 14 14 14 14 14 13
19 19 18 19 19 19 19 18 18 18 18 18 17 17 17 17 17 17 17 17 17 17 16 16 16 16 15 15 15 14 15 15 15 15 15 14 14 14 14 14 14 13 13
19 19 18 18 19 18 18 18 18 18 17 17 17 17 17 17 16 16 16 16 16 15 15 15 15 14 14 13 14 14 13 13 14 14 14 14 14 14 14 14 14 13 13
17 18 18 18 18 18 18 17 18 17 17 17 17 17 17 16 16 15 15 15 15 14 14 14 14 14 14 14 14 14 14 13 14 14 14 13 13 13 13 13 14 13 13
16 16 18 18 18 18 18 18 18 17 17 17 17 16 15 15 15 15 14 14 14 14 13 14 14 14 13 13 13 13 13 12 12 12 12 12 12 12 12 12 12 12 12

GFSMA_850_temp_144.txt.gz
Temp
17 18 18 19 19 19 19 19 20 20 20 20 20 20 21 20 20 20 20 21 20 20 20 19 19 19 19 18 18 18 18 18 17 17 17 18 18 18 18 18 18 18 18
17 18 18 19 19 19 20 20 20 20 21 21 21 20 20 21 20 20 20 20 20 20 20 20 20 19 19 19 19 19 19 19 18 18 18 18 18 18 18 19 19 19 18
19 18 18 19 19 19 20 20 20 20 21 21 21 21 21 20 20 19 20 20 20 20 20 20 20 20 19 19 19 19 19 19 19 19 18 18 18 19 19 19 19 19 19
19 19 19 19 19 19 20 20 21 21 21 22 21 21 21 21 20 20 20 20 20 20 19 20 20 20 20 19 19 19 19 19 19 19 19 18 18 19 19 19 20 19 19
19 18 19 19 19 19 20 20 21 20 21 22 22 22 21 21 21 22 21 20 20 20 20 19 21 21 20 20 20 19 19 19 20 19 19 19 19 19 19 20 20 20 19
19 19 19 19 19 19 20 20 20 20 20 21 23 22 22 22 21 21 21 21 21 20 20 20 20 19 21 21 20 20 19 19 19 19 19 19 19 19 19 20 20 20 19
19 19 19 19 19 19 20 20 20 20 21 21 21 23 22 22 22 22 22 22 21 20 20 20 21 19 19 21 21 20 20 20 20 19 19 19 19 19 19 19 20 19 19
19 18 19 19 19 19 20 20 20 20 21 20 21 22 24 24 23 22 22 21 21 21 21 21 22 21 21 20 20 20 20 20 20 19 19 19 19 19 19 19 19 19 19
18 19 18 19 19 19 19 19 20 20 21 20 21 21 23 24 23 23 22 22 21 21 21 21 21 21 21 20 20 20 20 20 20 19 19 19 19 19 19 19 19 19 19
17 18 17 19 19 19 19 19 19 20 20 21 20 20 21 21 22 24 24 22 22 22 21 21 21 20 21 19 19 20 20 20 20 19 19 19 19 19 19 19 19 19 19
18 18 17 18 19 19 19 19 19 20 19 20 20 20 20 20 20 21 23 23 23 23 22 22 21 21 20 20 19 19 20 20 20 19 19 19 19 18 18 19 19 19 19
18 18 18 19 19 18 19 19 19 20 19 19 19 20 20 21 22 22 22 22 23 22 22 22 22 21 20 20 19 20 20 20 19 19 19 19 19 18 18 18 19 19 19
20 19 17 17 18 19 19 19 19 19 19 18 19 20 20 20 20 21 21 22 22 22 22 22 22 20 20 19 19 20 20 19 19 19 19 19 19 19 18 18 19 19 19
20 19 18 18 17 17 18 19 19 18 18 18 18 18 20 20 20 20 20 21 21 23 23 21 21 20 20 20 19 19 18 19 19 19 19 19 19 18 18 18 18 18 18
19 18 18 18 18 18 18 18 18 18 18 18 19 18 18 20 20 20 20 20 20 21 22 21 21 20 20 20 19 18 18 19 19 19 19 18 18 18 18 18 18 18 18
18 18 18 18 18 18 18 18 18 19 18 19 19 19 18 19 20 20 19 19 20 19 19 21 20 20 19 19 19 18 18 19 19 18 19 18 18 18 17 17 17 17 17
18 19 19 19 18 18 18 18 18 18 18 18 18 18 18 18 18 20 20 20 18 18 18 20 20 19 18 18 18 18 18 17 17 18 18 18 18 18 17 17 17 17 17
18 18 19 19 19 19 18 17 18 18 18 17 18 18 18 18 18 18 18 18 18 18 18 19 19 18 18 18 17 17 17 18 16 17 17 17 17 17 17 16 16 16 16
20 18 18 18 19 19 18 18 17 18 18 18 18 18 17 17 18 18 18 18 18 18 18 17 19 20 19 18 18 17 17 17 16 17 17 17 17 16 16 16 16 16 16
19 18 18 18 18 18 18 18 18 17 18 18 18 18 18 18 18 18 18 18 18 18 18 18 18 18 18 17 17 16 17 17 16 16 15 15 16 16 16 16 15 15 15
18 17 17 18 18 18 18 18 18 18 17 18 18 17 17 18 18 18 18 18 18 18 19 19 17 17 17 16 16 16 16 16 16 16 15 15 15 14 15 15 15 15 15
17 17 17 17 18 18 19 19 19 18 18 17 17 18 17 18 18 18 18 18 18 18 17 17 17 16 16 16 15 15 16 16 16 15 14 14 15 15 15 15 14 14 14
17 17 17 17 17 17 18 18 19 18 17 17 17 17 17 17 18 18 18 17 18 17 17 17 15 16 15 16 15 15 15 15 15 15 15 14 14 14 14 14 14 14 13
17 18 17 17 17 18 18 18 19 18 17 17 17 18 18 18 18 17 16 16 16 16 16 15 15 15 15 14 14 14 14 14 14 14 14 14 14 13 14 14 13 13 13
18 18 17 17 17 17 18 19 18 18 17 17 18 17 17 18 17 16 16 15 15 15 14 14 14 14 14 14 14 14 13 14 14 13 13 13 12 12 13 13 13 13 13
17 17 17 17 17 18 18 19 18 17 17 18 17 17 17 17 16 15 15 15 14 14 14 14 13 13 13 13 13 13 13 13 13 13 12 12 13 13 14 12 11 11 12

GFSMA_850_temp_147.txt.gz
Temp
20 20 20 20 21 22 22 22 22 21 21 22 22 22 23 22 22 22 21 21 21 21 21 20 20 19 19 19 19 19 18 18 18 18 18 17 17 17 17 17 18 18 18
19 20 20 21 22 22 22 22 21 21 22 23 22 22 22 22 21 21 22 21 21 21 21 21 20 20 19 19 19 19 19 19 19 18 18 18 18 18 18 18 18 18 18
19 20 21 21 21 21 21 21 21 22 23 23 22 22 22 22 22 21 21 22 22 21 21 21 20 20 20 19 19 19 18 18 19 19 19 19 18 18 18 18 18 19 18
18 20 20 20 21 21 22 22 23 23 23 23 23 23 23 22 22 22 22 22 22 22 22 21 21 21 20 20 20 19 19 19 19 19 19 19 19 18 19 19 19 19 19
18 20 21 21 20 21 22 21 23 22 23 23 24 23 23 23 23 23 23 22 22 21 21 21 21 21 20 21 20 20 19 20 20 19 19 19 19 19 19 19 20 20 19
19 20 21 19 20 22 22 21 21 21 22 23 24 24 24 24 23 23 23 23 23 22 22 21 20 21 20 21 21 20 20 20 19 19 19 19 19 18 19 19 20 20 20
19 20 20 20 20 21 20 20 20 21 23 23 23 24 24 24 24 24 24 24 23 23 22 22 21 21 20 21 20 20 20 20 19 19 19 19 18 18 19 19 19 19 19
19 19 20 20 20 21 20 19 20 21 23 22 22 23 24 22 22 23 24 23 23 23 23 22 21 20 20 20 20 20 20 20 19 19 19 19 18 18 19 19 19 19 19
19 18 19 19 19 19 21 20 20 20 22 22 22 22 24 22 22 24 23 24 23 23 23 23 22 21 20 20 20 20 20 20 20 19 19 19 18 19 19 19 19 19 19
19 19 18 18 18 19 20 20 20 20 20 22 23 23 21 21 22 24 25 22 24 24 23 23 23 22 21 21 21 20 20 20 19 19 19 19 19 18 19 18 19 19 19
19 19 19 19 18 18 19 19 19 19 20 21 22 22 22 22 22 22 24 24 25 24 24 24 23 23 22 21 20 20 20 20 19 19 19 19 18 18 18 19 18 19 19
19 19 19 19 18 18 19 19 18 19 20 20 21 21 22 23 23 23 23 24 24 24 24 23 23 23 22 21 20 20 19 19 19 19 19 19 18 18 18 18 18 18 18
21 20 20 19 19 18 18 18 18 19 19 19 19 20 22 22 22 22 23 23 24 24 24 23 23 22 21 21 20 20 20 19 19 19 19 19 19 18 18 18 18 18 18
20 20 19 19 18 18 18 18 18 19 19 19 19 19 20 21 22 23 23 23 23 24 23 22 22 21 20 21 20 20 19 19 19 19 19 19 19 19 18 18 18 18 18
20 20 19 19 19 19 18 18 19 19 19 19 19 20 20 20 22 23 23 22 22 22 22 20 21 21 20 21 20 19 19 19 19 18 18 18 18 18 18 18 17 17 17
20 20 19 19 19 19 19 18 19 19 19 19 20 20 20 21 21 22 22 22 22 21 20 21 20 21 19 20 19 19 18 19 18 18 18 18 18 17 17 17 17 17 17
19 19 19 19 19 19 19 18 19 19 18 18 19 19 19 19 19 20 22 22 21 21 19 20 20 21 20 20 19 18 19 19 18 18 17 17 17 17 17 17 17 17 17
19 19 18 19 18 19 19 18 18 19 19 19 18 18 18 19 18 19 19 20 20 19 19 19 19 20 19 19 18 18 18 19 17 18 17 17 17 17 17 17 16 16 16
19 19 18 18 19 18 18 18 18 18 18 19 19 19 19 18 18 18 19 19 19 19 19 19 19 20 20 19 19 18 18 18 17 17 17 17 16 16 16 16 16 16 16
19 19 19 19 18 18 18 19 18 19 18 19 19 19 18 18 18 18 19 19 18 18 19 19 19 20 19 18 18 18 17 17 17 16 16 15 15 16 16 16 15 15 15
19 19 19 19 19 19 19 19 19 19 18 19 18 18 18 19 19 19 19 18 18 18 19 18 19 18 18 17 17 17 17 17 16 15 15 15 14 14 15 15 15 14 14
18 19 19 19 18 18 20 20 19 19 19 19 18 18 18 18 19 19 19 19 19 18 17 18 17 17 17 17 16 16 16 16 16 15 15 15 14 14 14 14 14 14 13
18 18 19 18 18 18 19 19 19 19 19 19 19 18 18 18 18 19 18 18 18 18 18 17 16 16 16 16 16 15 15 15 15 15 15 14 14 14 14 15 14 14 13
18 18 18 19 19 19 19 19 19 19 18 19 18 18 18 18 18 17 17 17 16 16 17 16 16 16 15 15 15 15 14 14 14 15 14 14 14 13 13 14 14 13 13
17 18 18 18 19 19 18 19 18 18 18 18 18 18 18 17 18 18 17 16 16 16 16 16 15 15 15 15 15 15 15 14 14 14 14 13 14 14 13 12 14 13 12
16 17 17 18 18 18 19 18 18 18 18 17 17 17 18 17 18 18 16 16 15 15 15 15 14 14 14 14 14 14 13 14 14 14 14 14 15 15 15 13 12 12 12